This demonstration page uses our WeatherBlox Daily Observations layout. Learn more.

Left ArrowRight Arrow

Hourly Observations for August 9, 2018

Temp ( °F °C ) Dew Point ( °F °C ) Humidity (%) Winds ( mph kmh ) Pressure ( in mb ) Visibility ( mi km ) Precip ( " mm )
12:52 am 00:52 Clear 69 20.6 65 18.3 87 87 SW 5 7 29.98 1015 10 16 0.00 0.00
1:52 am 01:52 Clear 69 20.6 65 18.3 87 87 Calm 29.97 1015 10 16 0.00 0.00
2:52 am 02:52 Clear 68 20 65 18.3 90 90 Calm 29.97 1015 10 16 0.00 0.00
3:52 am 03:52 Clear 68 20 64 17.8 87 87 SSE 3 6 29.98 1015 10 16 0.00 0.00
4:52 am 04:52 Clear 68 20 64 17.8 87 87 Calm 29.97 1015 10 16 0.00 0.00
5:52 am 05:52 Clear 68 20 64 17.8 87 87 Calm 29.98 1015 10 16 0.00 0.00
6:52 am 06:52 Sunny 66 18.9 63 17.2 90 90 Calm 30.01 1016 10 16 0.00 0.00
7:52 am 07:52 Sunny 70 21.1 66 18.9 87 87 S 3 6 30.01 1016 10 16 0.00 0.00
8:52 am 08:52 Sunny 76 24.4 68 20 77 77 NW 7 11 30.02 1017 10 16 0.00 0.00
9:52 am 09:52 Sunny 80 26.7 68 20 67 67 NNW 5 7 30.02 1017 10 16 0.00 0.00
10:52 am 10:52 Sunny 83 28.3 68 20 61 61 VRB 3 6 30.02 1017 10 16 0.00 0.00
11:52 am 11:52 Sunny 86 30 65 18.3 49 49 ENE 3 6 30.01 1016 10 16 0.00 0.00
12:52 pm 12:52 Sunny 88 31.1 65 18.3 46 46 Calm 30.00 1016 10 16 0.00 0.00
1:52 pm 13:52 Mostly Sunny 91 32.8 64 17.8 41 41 Calm 29.98 1015 10 16 0.00 0.00
2:52 pm 14:52 Mostly Sunny 92 33.3 63 17.2 38 38 Calm 29.95 1014 10 16 0.00 0.00
3:29 pm 15:29 Partly Cloudy with Nearby Thunderstorms 89 31.7 61 16.1 39 39 NNW 5 7 29.91 1013 10 16 0.00 0.00
3:44 pm 15:44 Mostly Sunny 91 32.8 62 16.7 38 38 WSW 6 9 29.88 1012 10 16 0.00 0.00
3:52 pm 15:52 Mostly Cloudy 92 33.3 62 16.7 37 37 W 8 13 29.93 1014 10 16 0.00 0.00
4:16 pm 16:16 Partly Cloudy with Nearby Thunderstorms 91 32.8 62 16.7 38 38 NW 13 20 29.88 1012 10 16 0.00 0.00
4:35 pm 16:35 Mostly Cloudy with Thunderstorms 86 30 61 16.1 43 43 WNW 8 13 29.88 1012 10 16 0.00 0.03
4:52 pm 16:52 Mostly Cloudy 85 29.4 61 16.1 45 45 undefined N/A 29.94 1014 10 16 0.00 0.03
5:16 pm 17:16 Partly Cloudy with Nearby Thunderstorms 86 30 62 16.7 45 45 NW 3 6 29.88 1012 10 16 0.00 0.00
5:31 pm 17:31 Sunny 86 30 63 17.2 46 46 Calm 29.88 1012 10 16 0.00 0.00
5:52 pm 17:52 Sunny 86 30 64 17.8 48 48 WSW 8 13 29.94 1014 10 16 0.00 0.00
6:52 pm 18:52 Sunny 84 28.9 63 17.2 49 49 W 10 17 29.95 1014 10 16 0.00 0.00
7:52 pm 19:52 Sunny 80 26.7 65 18.3 60 60 NNW 6 9 29.95 1014 10 16 0.00 0.00
8:52 pm 20:52 Clear 77 25 64 17.8 64 64 NW 3 6 29.95 1014 10 16 0.00 0.00
9:52 pm 21:52 Clear 76 24.4 64 17.8 67 67 SW 3 6 29.98 1015 10 16 0.00 0.00
10:52 pm 22:52 Clear 73 22.8 64 17.8 74 74 SW 7 11 29.98 1015 10 16 0.00 0.00
11:52 pm 23:52 Clear 71 21.7 63 17.2 76 76 SSE 5 7 29.99 1016 10 16 0.00 0.00

Powered by AerisWeather